NAVSTAR 80 (USA 309) (46826 NORAD) Tracking and Keplerian Element Data

This shows tracking and keplerian element data for the satellite.

Feedback or suggestion? Click here.




ElementValue
Catalog46826
NameNAVSTAR 80 (USA 309)
Epoch Orbit81
Epoch Day330.96875
Epoch Year2020
RAAN293.0958
Inclination54.9749
Eccentricity0.0001478
Argument of Perigee108.8345
Mean Anonmoly196.2588
Mean Motion2.00561083
Decay Rate-6.5E-07
L11 46826U 20078A 20330.96875000 -.00000065 00000-0 00000+0 0 9997
L22 46826 54.9749 293.0958 0001478 108.8345 196.2588 2.00561083 814

Live tracking and technical data element details for NAVSTAR 80 (USA 309) (NORAD 46826). NAVSTAR 80 (USA 309) can be tracked NOW for your location showing map with azimuth and elevation plus other details from your city location.

Track the satellite on the map from your city or location and see movement details for azimuth, elevation, latitude, longitude, range, height, and movement on the map or in text.







IsCatalogInMostPopularTable: catalog: 46826, numindb: 5
Update: records affected: 1



GetName: 46826 NAVSTAR 80 (USA 309)

Hit Count: updated at: Thu, 26 Nov 2020 17:26:00 GMT